Regional Weather Roundup
Issued by NWS Kansas City/Pleasant Hill, MO

Home | Current Version | Previous Version | Graphics & Text | Print | Product List | Glossary Off
Versions: 1 2 3 4 5 6 7 8 9 10 11 12 13 14 15 16 17 18 19 20 21 22 23 24 25 26 27

000
ASUS43 KEAX 171510
RWREAX

WEATHER ROUNDUP FOR EASTERN KANSAS AND NORTHWEST MISSOURI
NATIONAL WEATHER SERVICE KANSAS CITY/PLEASANT HILL MO
900 AM CST WED JAN 17 2018

KSZ040-057-103>105-MOZ028-029-037-043-171600-
...KANSAS CITY METROPOLITAN AREA...

CITY           SKY/WX    TMP DP  RH WIND       PRES   REMARKS
K.C. INTL      CLOUDY     5   2  87 SW9       30.63S WCI  -9
K.C. DOWNTOWN  CLOUDY     9   3  77 SW6       30.68S WCI  -1
LEES SUMMIT    CLOUDY     7   4  87 SW7       30.65S WCI  -5
OLATHE - IXD   CLOUDY     6   2  83 SW9       30.66R WCI  -8
OLATHE - OJC   CLOUDY     5   2  87 SW6       30.65R WCI  -6
LAWRENCE       CLOUDY     2  -1  88 CALM      30.67R

$$

MOZ001>008-011>017-020>025-030>033-038>040-044>046-053-054-171600-
...NORTHERN AND CENTRAL MISSOURI...

CITY           SKY/WX    TMP DP  RH WIND       PRES   REMARKS
ST. JOSEPH       N/A    N/A N/A N/A MISG      30.65S
MOSBY            N/A      1  -2  85 CALM      30.67F
WARRENSBURG    CLOUDY     3   0  85 S3        30.69R
WHITEMAN AFB   SUNNY      5  -1  75 W7        30.63S WCI  -7
CLINTON        MOSUNNY    1   0  92 MISG      30.71R
SEDALIA        CLOUDY     5   2  87 SW6       30.69R WCI  -6
WARSAW         NOT AVBL
CHILLICOTHE      N/A      3   0  87 CALM      30.67R
KIRKSVILLE     CLOUDY     2   1  96 W8        30.63S WCI -12

$$

MOZ041-047>049-056>058-063>065-088>090-097-171600-
...EASTERN AND SOUTHERN MISSOURI...

CITY           SKY/WX    TMP DP  RH WIND       PRES   REMARKS
ST. LOUIS INTL CLOUDY     8   2  76 W10       30.70R WCI  -6
SPIRIT OF STL  CLOUDY     7   2  80 W7        30.71R WCI  -5
COLUMBIA       CLOUDY     5   1  83 W6        30.68R WCI  -6
JEFFERSON CITY MOSUNNY    2  -2  83 NW3       30.74R
ROLLA          CLOUDY     3   1  91 SW5       30.67R WCI  -6
OSAGE BEACH    CLOUDY     3  -3  76 CALM      30.72R
SPRINGFIELD    CLOUDY     0  -3  87 SW5       30.66R WCI -10
BRANSON        MOSUNNY    7   1  78 W3        30.68R
JOPLIN         CLOUDY     2   0  91 S6        30.72R WCI  -9
WEST PLAINS    CLOUDY     4  -1  80 W5        30.66R WCI  -5

$$

IAZ060-094-KSZ022-034>040-054-083-096-NEZ052-066-093-171600-
...KANSAS...SOUTHEAST NEBRASKA AND IOWA...

CITY           SKY/WX    TMP DP  RH WIND       PRES   REMARKS
TOPEKA         CLOUDY     2  -2  83 CALM      30.66R
MANHATTAN      CLOUDY     7   2  80 SW6       30.63R WCI  -3
EMPORIA        CLOUDY     8   3  80 SW9       30.63S WCI  -5
CHANUTE        CLOUDY     5   2  87 S6        30.69R WCI  -6
WICHITA        CLOUDY     8   4  83 S8        30.62S WCI  -4
OMAHA          CLOUDY     5   0  79 SE10      30.54S WCI -10
LINCOLN        CLOUDY    10   2  69 SW8       30.53S WCI  -2
FALLS CITY     CLOUDY     2  -1  88 SE3       30.60R
LAMONI         CLOUDY     4   0  83 SW8       30.58S WCI  -9
DES MOINES     CLOUDY     2  -2  83 S6        30.54F WCI  -9

$$





USA.gov is the U.S. government's official web portal to all federal, state and local government web resources and services.